FW8564 Weather Reports


Display with metric or nautical units.
time (UTC)temp
F
wind
direction
speed
MPH
gust
MPH
rain 1hr
in
rain 24hr
in
rain mn
in
humidity
%
barometer
mb
20260504173212 65 180 0.0 0.0 0.00 0.01 0.01 90 1007.8
20260504172703 65 135 0.0 0.0 0.00 0.01 0.01 90 1008.1
20260504171642 65 158 0.0 0.0 0.01 0.01 0.01 90 1008.0
20260504171131 65 158 0.0 0.0 0.01 0.01 0.01 90 1007.9
20260504170622 65 248 0.0 0.0 0.01 0.01 0.01 90 1008.1
20260504170112 65 203 0.0 0.0 0.01 0.01 0.01 90 1008.3
20260504160421 65 158 0.0 0.0 0.00 0.00 0.00 90 1008.7
20260504150219 67 180 0.0 0.0 0.00 0.00 0.00 81 1008.4
20260504141037 71 135 0.0 0.0 0.00 0.00 0.00 74 1008.4
20260504140528 70 180 0.0 0.0 0.00 0.00 0.00 75 1008.2
20260504130326 67 113 0.0 0.0 0.00 0.00 0.00 82 1008.8
20260504120125 69 135 0.0 0.0 0.00 0.00 0.00 79 1009.5
20260504100232 69 113 0.0 0.0 0.00 0.00 0.00 78 1009.9
20260504081910 71 135 0.0 0.0 0.00 0.00 0.00 71 1009.4
20260504081400 70 180 0.0 0.0 0.00 0.00 0.00 71 1009.6
20260504080340 70 180 0.0 0.0 0.00 0.00 0.00 72 1009.7
20260504070138 64 270 0.0 0.0 0.00 0.00 0.00 82 1009.6
20260504050245 58 180 0.0 0.0 0.00 0.00 0.00 93 1010.1
20260504045735 58 180 0.0 0.0 0.00 0.00 0.00 93 1010.0
20260504045226 58 180 0.0 0.0 0.00 0.00 0.00 93 1010.2
20260504044715 58 180 0.0 0.0 0.00 0.00 0.00 93 1010.1
20260504044206 58 180 0.0 0.0 0.00 0.00 0.00 93 1010.1
20260504043655 58 180 0.0 0.0 0.00 0.00 0.00 93 1010.1
20260504043146 58 180 0.0 0.0 0.00 0.00 0.00 93 1010.0
20260504042636 59 180 0.0 0.0 0.00 0.00 0.00 93 1010.1
20260504042125 59 180 0.0 0.0 0.00 0.00 0.00 93 1010.4
20260504041615 59 180 0.0 0.0 0.00 0.00 0.00 93 1010.4
20260504041105 59 180 0.0 0.0 0.00 0.00 0.00 92 1010.2
20260504040555 59 180 0.0 0.0 0.00 0.00 0.00 93 1010.5
20260504035534 59 180 0.0 0.0 0.00 0.00 0.00 92 1010.5
20260504035024 60 180 0.0 0.0 0.00 0.00 0.00 92 1010.6
20260504034514 60 180 0.0 0.0 0.00 0.00 0.00 93 1010.6
20260504034004 60 180 0.0 0.0 0.00 0.00 0.00 93 1010.6
20260504033453 60 180 0.0 0.0 0.00 0.00 0.00 93 1010.6
20260504032943 60 180 0.0 0.0 0.00 0.00 0.00 93 1010.5
20260504032434 60 180 0.0 0.0 0.00 0.00 0.00 93 1010.8
20260504031413 60 135 0.0 0.0 0.00 0.00 0.00 93 1010.7
20260504030904 59 135 0.0 0.0 0.00 0.00 0.00 93 1010.8
20260504030353 60 135 0.0 0.0 0.00 0.00 0.00 93 1010.7
20260504025333 60 135 0.0 0.0 0.00 0.00 0.00 93 1010.7
20260504024822 60 135 0.0 0.0 0.00 0.00 0.00 93 1010.8
20260504024313 60 135 0.0 0.0 0.00 0.00 0.00 93 1010.9
20260504023803 60 135 0.0 0.0 0.00 0.00 0.00 92 1011.0
20260504022743 60 135 0.0 0.0 0.00 0.00 0.00 92 1010.7
20260504022232 60 135 0.0 0.0 0.00 0.00 0.00 92 1010.9
20260504021722 60 135 0.0 0.0 0.00 0.00 0.00 92 1011.0
20260504020702 60 135 0.0 0.0 0.00 0.00 0.00 92 1011.0
20260504020151 60 135 0.0 0.0 0.00 0.00 0.00 92 1011.2
20260504014112 60 135 0.0 0.0 0.00 0.00 0.00 92 1011.2
20260504013601 60 135 0.0 0.0 0.00 0.00 0.00 92 1011.2
20260504013051 60 135 0.0 0.0 0.00 0.00 0.00 92 1011.2
20260504012541 60 135 0.0 0.0 0.00 0.00 0.00 92 1011.3
20260504011010 60 135 0.0 0.0 0.00 0.00 0.00 92 1011.4
20260504010501 60 135 0.0 0.0 0.00 0.00 0.00 92 1011.3
20260504005951 60 135 0.0 0.0 0.00 0.00 0.00 92 1011.4
20260504005440 60 135 0.0 0.0 0.00 0.00 0.00 92 1011.4
20260504004930 60 135 0.0 0.0 0.00 0.00 0.00 92 1011.5
20260504004420 60 113 0.0 0.0 0.00 0.00 0.00 92 1011.4
20260504003910 60 113 0.0 0.0 0.00 0.00 0.00 92 1011.5
20260504003400 60 113 0.0 0.0 0.00 0.00 0.00 92 1011.7
20260504002850 60 113 0.0 0.0 0.00 0.00 0.00 92 1011.5
20260504002341 60 135 0.0 0.0 0.00 0.00 0.00 92 1011.5
20260504001829 60 135 0.0 0.0 0.00 0.00 0.00 91 1011.4
20260504001313 60 0.0 0.0 0.00 0.00 0.00 91
20260504000140 60 135 0.0 0.0 0.00 0.00 0.00 90 1011.7
20260503235504 60 135 0.0 0.0 0.00 0.00 0.00 91 1011.8
20260503234954 60 135 0.0 0.0 0.00 0.00 0.00 90 1011.8
20260503234444 60 135 0.0 0.0 0.00 0.00 0.00 90 1012.0
20260503233934 60 135 0.0 0.0 0.00 0.00 0.00 90 1011.9
20260503233424 60 135 0.0 0.0 0.00 0.00 0.00 90 1012.2
20260503232914 60 135 0.0 0.0 0.00 0.00 0.00 90 1012.0
20260503232404 60 158 0.0 0.0 0.00 0.00 0.00 90 1012.0
20260503231854 60 158 0.0 0.0 0.00 0.00 0.00 90 1012.0
20260503231343 60 158 0.0 0.0 0.00 0.00 0.00 89 1012.1
20260503230833 61 158 0.0 0.0 0.00 0.00 0.00 89 1011.9
20260503230323 61 158 0.0 0.0 0.00 0.00 0.00 89 1012.5
20260503225813 61 158 0.0 0.0 0.00 0.00 0.00 89 1012.4
20260503225304 61 158 0.0 0.0 0.00 0.00 0.00 89 1012.6
20260503224753 61 158 0.0 0.0 0.00 0.00 0.00 89 1012.5
20260503224243 61 158 0.0 0.0 0.00 0.00 0.00 89 1012.5
20260503222713 61 158 0.0 0.0 0.00 0.00 0.00 88 1012.7
20260503221652 61 158 0.0 0.0 0.00 0.00 0.00 89 1012.7
20260503221142 61 158 0.0 0.0 0.00 0.00 0.00 89 1012.7
20260503220632 61 158 0.0 0.0 0.00 0.00 0.00 89 1012.8
20260503215611 61 158 0.0 0.0 0.00 0.00 0.00 88 1012.9
20260503215101 61 135 0.0 0.0 0.00 0.00 0.00 88 1012.9
20260503214552 61 158 0.0 0.0 0.00 0.00 0.00 88 1012.8
20260503214041 61 135 0.0 0.0 0.00 0.00 0.00 88 1012.8
20260503213533 61 180 0.0 0.0 0.00 0.00 0.00 88 1013.0
20260503213021 61 180 0.0 0.0 0.00 0.00 0.00 88 1012.9
20260503212514 61 158 0.0 0.0 0.00 0.00 0.00 88 1012.9
20260503212001 61 135 0.0 0.0 0.00 0.00 0.00 87 1013.0
20260503211453 61 180 0.0 0.0 0.00 0.00 0.00 87 1013.1
20260503210430 61 158 0.0 0.0 0.00 0.00 0.00 87 1013.1
20260503205921 61 135 0.0 0.0 0.00 0.00 0.00 87 1013.1
20260503205411 61 135 0.0 0.0 0.00 0.00 0.00 87 1013.3
20260503204859 61 180 0.0 0.0 0.00 0.00 0.00 87 1013.3
20260503204349 61 180 0.0 0.0 0.00 0.00 0.00 87 1013.3
20260503203840 61 135 0.0 0.0 0.00 0.00 0.00 87 1013.3
20260503203333 61 180 0.0 0.0 0.00 0.00 0.00 87 1013.5
20260503202820 61 135 0.0 0.0 0.00 0.00 0.00 87 1013.6
20260503202310 61 158 0.0 0.0 0.00 0.00 0.00 87 1013.5
20260503201800 62 180 0.0 0.0 0.00 0.00 0.00 87 1013.5
20260503201249 61 135 0.0 0.0 0.00 0.00 0.00 87 1013.3
20260503200745 61 158 0.0 0.0 0.00 0.00 0.00 87 1013.1
20260503195209 61 158 0.0 0.0 0.00 0.00 0.00 87 1012.9
20260503194659 61 113 0.0 0.0 0.00 0.00 0.00 87 1012.7
20260503194149 61 135 0.0 0.0 0.00 0.00 0.00 87 1012.6
20260503193639 61 135 0.0 0.0 0.00 0.00 0.00 86 1012.7
20260503193128 62 135 0.0 0.0 0.00 0.00 0.00 86 1012.5
20260503192109 62 113 0.0 0.0 0.00 0.00 0.00 85 1012.4
20260503191048 62 135 0.0 0.0 0.00 0.00 0.00 84 1012.5
20260503190542 62 180 0.0 0.0 0.00 0.00 0.00 84 1012.5
20260503185008 62 158 0.0 0.0 0.00 0.00 0.00 84 1012.4
20260503184458 62 135 0.0 0.0 0.00 0.00 0.00 84 1012.5
20260503183948 62 135 0.0 0.0 0.00 0.00 0.00 84 1012.4
20260503183437 62 158 0.0 0.0 0.00 0.00 0.00 84 1012.5
20260503182928 62 135 0.0 0.0 0.00 0.00 0.00 85 1012.5
20260503182418 62 135 0.0 0.0 0.00 0.00 0.00 84 1012.4
20260503181356 62 158 0.0 0.0 0.00 0.00 0.00 84 1012.3
20260503180336 63 203 0.0 0.0 0.00 0.00 0.00 85 1012.5
20260503175827 62 135 0.0 0.0 0.00 0.00 0.00 85 1012.3
20260503175317 62 158 0.0 0.0 0.00 0.00 0.00 85 1012.4
20260503174806 63 180 0.0 0.0 0.00 0.00 0.00 85 1012.5
20260503174256 63 135 0.0 0.0 0.00 0.00 0.00 85 1012.1
20260503173746 63 113 0.0 0.0 0.00 0.00 0.00 84 1012.3
20260503173236 63 158 0.0 0.0 0.00 0.00 0.00 84 1012.6